When you browse on this site, cookies collect data to enhance your experience and personalize the content and advertising you see.
Visit our Privacy Policy to learn more. By continuing to use the site, you agree to this use of cookies and data.
  • In France
  • List of Countries
  • For 7 days
  • Water Temperature
  • Weather Map
  • Weather Widgets
  • user-avatar
    Login

    Hourly Weather Manaus

    Today, 6 December, Friday

    Time Temperature Precipitation Wind Pressure Humidity
    00:00 +25°C° 0.4 mm 0 mps 753 mmHg 90%
    01:00 +24°C° 0.4 mm 0 mps 753 mmHg 92%
    02:00 +24°C° 0.4 mm 0 mps 752 mmHg 94%
    03:00 +24°C° 0.6 mm 0 mps 753 mmHg 94%
    04:00 +24°C° 0.6 mm 0 mps 753 mmHg 95%
    05:00 +24°C° 0.6 mm 0 mps 753 mmHg 96%
    06:00 +25°C° 1.2 mm 0 mps 754 mmHg 93%
    07:00 +26°C° 1.2 mm 0 mps 754 mmHg 91%
    08:00 +27°C° 1.2 mm 0 mps 755 mmHg 89%
    09:00 +27°C° 1.7 mm 0 mps 755 mmHg 85%
    10:00 +30°C° 1.7 mm 1 mps 755 mmHg 80%
    11:00 +31°C° 1.7 mm 1 mps 754 mmHg 76%
    12:00 +32°C° 0.6 mm 1 mps 753 mmHg 71%
    13:00 +33°C° 0.6 mm 1 mps 753 mmHg 66%
    14:00 +34°C° 0.6 mm 1 mps 752 mmHg 61%
    15:00 +33°C° 0.1 mm 1 mps 751 mmHg 62%
    16:00 +31°C° 0.1 mm 0 mps 751 mmHg 63%
    17:00 +31°C° 0.1 mm 0 mps 751 mmHg 64%
    18:00 +29°C° 0.1 mm 0 mps 751 mmHg 69%
    19:00 +28°C° 0.1 mm 0 mps 752 mmHg 75%
    20:00 +26°C° 0.1 mm 0 mps 752 mmHg 80%
    21:00 +26°C° 0 mm 0 mps 752 mmHg 81%
    22:00 +26°C° 0 mm 0 mps 752 mmHg 82%
    23:00 +28°C° 0 mm 1 mps 753 mmHg 83%

    Tomorrow, 7 December, Saturday

    Time Temperature Precipitation Wind Pressure Humidity
    00:00 +27°C° 0.1 mm 1 mps 752 mmHg 84%
    01:00 +27°C° 0.1 mm 1 mps 752 mmHg 86%
    02:00 +26°C° 0.1 mm 1 mps 751 mmHg 88%
    03:00 +26°C° 0.6 mm 1 mps 752 mmHg 90%
    04:00 +26°C° 0.6 mm 1 mps 752 mmHg 92%
    05:00 +24°C° 0.6 mm 0 mps 752 mmHg 94%
    06:00 +25°C° 1.1 mm 0 mps 753 mmHg 92%
    07:00 +26°C° 1.1 mm 0 mps 753 mmHg 90%
    08:00 +26°C° 1.1 mm 0 mps 754 mmHg 88%
    09:00 +30°C° 1.5 mm 1 mps 754 mmHg 84%
    10:00 +31°C° 1.5 mm 1 mps 754 mmHg 79%
    11:00 +32°C° 1.5 mm 1 mps 754 mmHg 75%
    12:00 +32°C° 1.1 mm 1 mps 753 mmHg 75%
    13:00 +32°C° 1.1 mm 1 mps 752 mmHg 76%
    14:00 +32°C° 1.1 mm 1 mps 751 mmHg 77%
    15:00 +31°C° 1.4 mm 1 mps 751 mmHg 81%
    16:00 +30°C° 1.4 mm 1 mps 751 mmHg 85%
    17:00 +29°C° 1.4 mm 2 mps 751 mmHg 88%
    18:00 +28°C° 0 mm 2 mps 751 mmHg 90%
    19:00 +27°C° 0 mm 2 mps 752 mmHg 91%
    20:00 +27°C° 0 mm 2 mps 752 mmHg 93%
    21:00 +26°C° 0 mm 2 mps 753 mmHg 94%
    22:00 +26°C° 0 mm 2 mps 753 mmHg 94%
    23:00 +26°C° 0 mm 1 mps 753 mmHg 95%

    Day after tomorrow, 8 December, Sunday

    Time Temperature Precipitation Wind Pressure Humidity
    00:00 +26°C° 0.1 mm 1 mps 753 mmHg 95%
    01:00 +25°C° 0.1 mm 1 mps 752 mmHg 96%
    02:00 +25°C° 0.1 mm 1 mps 752 mmHg 96%
    03:00 +25°C° 0.4 mm 1 mps 752 mmHg 97%
    04:00 +25°C° 0.4 mm 1 mps 752 mmHg 97%
    05:00 +25°C° 0.4 mm 1 mps 752 mmHg 97%
    06:00 +26°C° 0 mm 1 mps 753 mmHg 94%
    07:00 +27°C° 0 mm 1 mps 754 mmHg 92%
    08:00 +27°C° 0 mm 1 mps 754 mmHg 89%
    09:00 +29°C° 0.4 mm 1 mps 754 mmHg 83%
    10:00 +30°C° 0.4 mm 1 mps 754 mmHg 76%
    11:00 +32°C° 0.4 mm 1 mps 754 mmHg 70%
    12:00 +32°C° 1.6 mm 1 mps 753 mmHg 72%
    13:00 +32°C° 1.6 mm 1 mps 752 mmHg 73%
    14:00 +31°C° 1.6 mm 2 mps 751 mmHg 75%
    15:00 +31°C° 0.8 mm 1 mps 751 mmHg 76%
    16:00 +31°C° 0.8 mm 1 mps 751 mmHg 77%
    17:00 +30°C° 0.8 mm 1 mps 751 mmHg 79%
    18:00 +29°C° 1.6 mm 1 mps 751 mmHg 84%
    19:00 +28°C° 1.6 mm 1 mps 752 mmHg 89%
    20:00 +26°C° 1.6 mm 2 mps 752 mmHg 94%
    21:00 +26°C° 0 mm 2 mps 752 mmHg 94%
    22:00 +26°C° 0 mm 2 mps 753 mmHg 95%
    23:00 +26°C° 0 mm 2 mps 753 mmHg 95%

    9 December, Monday

    Time Temperature Precipitation Wind Pressure Humidity
    00:00 +26°C° 0 mm 2 mps 752 mmHg 95%
    01:00 +26°C° 0 mm 1 mps 752 mmHg 95%
    02:00 +26°C° 0 mm 1 mps 752 mmHg 95%
    03:00 +25°C° 0.4 mm 1 mps 752 mmHg 95%
    04:00 +25°C° 0.4 mm 1 mps 752 mmHg 96%
    05:00 +25°C° 0.4 mm 1 mps 752 mmHg 96%
    06:00 +25°C° 0.5 mm 1 mps 753 mmHg 96%
    07:00 +25°C° 0.5 mm 1 mps 753 mmHg 95%
    08:00 +26°C° 0.5 mm 1 mps 754 mmHg 94%
    09:00 +27°C° 0 mm 1 mps 754 mmHg 90%
    10:00 +28°C° 0 mm 1 mps 754 mmHg 85%
    11:00 +29°C° 0 mm 2 mps 754 mmHg 80%
    12:00 +30°C° 0.1 mm 2 mps 753 mmHg 73%
    13:00 +32°C° 0.1 mm 2 mps 752 mmHg 66%
    14:00 +34°C° 0.1 mm 2 mps 751 mmHg 59%
    15:00 +32°C° 0.1 mm 1 mps 751 mmHg 63%
    16:00 +32°C° 0.1 mm 1 mps 751 mmHg 67%
    17:00 +31°C° 0.1 mm 1 mps 750 mmHg 71%
    18:00 +30°C° 0.1 mm 1 mps 751 mmHg 76%
    19:00 +28°C° 0.1 mm 1 mps 752 mmHg 81%
    20:00 +27°C° 0.1 mm 1 mps 752 mmHg 86%
    21:00 +25°C° 0.1 mm 0 mps 752 mmHg 87%
    22:00 +25°C° 0.1 mm 0 mps 752 mmHg 88%
    23:00 +24°C° 0.1 mm 0 mps 753 mmHg 88%

    10 December, Tuesday

    Time Temperature Precipitation Wind Pressure Humidity
    00:00 +24°C° 0 mm 0 mps 752 mmHg 89%
    01:00 +24°C° 0 mm 0 mps 752 mmHg 89%
    02:00 +24°C° 0 mm 0 mps 751 mmHg 89%
    03:00 +24°C° 0 mm 0 mps 751 mmHg 89%
    04:00 +24°C° 0 mm 0 mps 751 mmHg 89%
    05:00 +26°C° 0 mm 1 mps 751 mmHg 89%
    06:00 +25°C° 0 mm 0 mps 752 mmHg 85%
    07:00 +26°C° 0 mm 0 mps 753 mmHg 80%
    08:00 +27°C° 0 mm 0 mps 754 mmHg 76%
    09:00 +29°C° 0.1 mm 0 mps 753 mmHg 68%
    10:00 +31°C° 0.1 mm 0 mps 753 mmHg 60%
    11:00 +35°C° 0.1 mm 1 mps 753 mmHg 52%
    12:00 +34°C° 1.3 mm 1 mps 752 mmHg 62%
    13:00 +32°C° 1.3 mm 2 mps 752 mmHg 71%
    14:00 +31°C° 1.3 mm 2 mps 751 mmHg 80%
    15:00 +30°C° 0.4 mm 2 mps 751 mmHg 82%
    16:00 +30°C° 0.4 mm 1 mps 750 mmHg 84%
    17:00 +29°C° 0.4 mm 1 mps 750 mmHg 85%
    18:00 +29°C° 0 mm 1 mps 751 mmHg 87%
    19:00 +28°C° 0 mm 1 mps 751 mmHg 89%
    20:00 +27°C° 0 mm 1 mps 752 mmHg 90%
    21:00 +27°C° 0 mm 1 mps 752 mmHg 90%
    22:00 +27°C° 0 mm 1 mps 752 mmHg 89%
    23:00 +26°C° 0 mm 1 mps 752 mmHg 88%

    11 December, Wednesday

    Time Temperature Precipitation Wind Pressure Humidity
    00:00 +26°C° 0.2 mm 1 mps 752 mmHg 89%
    01:00 +26°C° 0.2 mm 1 mps 751 mmHg 90%
    02:00 +24°C° 0.2 mm 0 mps 751 mmHg 90%
    03:00 +24°C° 0.6 mm 0 mps 751 mmHg 92%
    04:00 +23°C° 0.6 mm 0 mps 751 mmHg 93%
    05:00 +23°C° 0.6 mm 0 mps 751 mmHg 95%
    06:00 +26°C° 1 mm 1 mps 752 mmHg 93%
    07:00 +27°C° 1 mm 1 mps 753 mmHg 91%
    08:00 +28°C° 1 mm 1 mps 754 mmHg 90%
    09:00 +28°C° 2.5 mm 1 mps 753 mmHg 88%
    10:00 +29°C° 2.5 mm 1 mps 753 mmHg 87%
    11:00 +30°C° 2.5 mm 1 mps 753 mmHg 85%
    12:00 +30°C° 1.3 mm 1 mps 752 mmHg 83%
    13:00 +31°C° 1.3 mm 1 mps 751 mmHg 82%
    14:00 +31°C° 1.3 mm 1 mps 751 mmHg 80%
    15:00 +30°C° 1.7 mm 1 mps 750 mmHg 84%
    16:00 +26°C° 1.7 mm 0 mps 750 mmHg 88%
    17:00 +25°C° 1.7 mm 0 mps 750 mmHg 92%
    18:00 +25°C° 1.2 mm 0 mps 751 mmHg 93%
    19:00 +26°C° 1.2 mm 1 mps 751 mmHg 95%
    20:00 +26°C° 1.2 mm 1 mps 752 mmHg 96%
    21:00 +26°C° 0.3 mm 1 mps 752 mmHg 96%
    22:00 +25°C° 0.3 mm 1 mps 752 mmHg 96%
    23:00 +25°C° 0.3 mm 1 mps 752 mmHg 97%
    Show more